CAPE
0 0 0 0 0 0 0 0 0 0 0 2 3 1 4 7 10 9 15 22 18 3 25 78 49 23 30 36 47 91 50 4 0 0 0 0 0 0 0 0 0 0 0
0 0 0 0 0 0 0 0 0 0 0 0 2 7 19 15 13 14 20 21 25 20 37 78 80 24 38 74 42 43 88 36 16 0 0 0 0 0 0 0 0 0 0
0 0 0 0 0 0 0 0 0 2 2 1 0 0 1 2 12 26 24 12 25 35 32 49 64 67 101 135 75 55 84 99 44 20 0 0 0 0 0 0 0 0 0
0 0 0 0 0 1 2 3 4 2 1 1 3 1 2 10 10 23 36 20 36 50 25 39 36 52 124 138 84 58 44 59 35 20 2 1 0 0 0 0 0 0 0
0 0 0 0 0 3 1 2 6 12 13 2 0 6 6 6 8 14 34 30 18 25 52 126 114 131 173 121 82 55 68 59 53 39 6 2 1 0 0 0 0 0 0
0 0 1 0 3 1 4 10 7 7 19 12 3 5 7 8 9 20 16 26 0 22 48 22 133 204 127 64 43 24 24 25 64 32 13 3 5 0 0 0 0 0 0
0 0 1 1 0 6 2 5 2 9 18 3 5 8 5 2 4 21 38 24 37 31 2 0 68 76 96 42 15 14 25 33 19 40 17 2 2 0 0 0 0 0 0
0 1 1 2 2 4 6 3 3 10 4 11 1 4 4 0 8 20 32 40 28 8 17 26 46 41 59 27 10 9 6 11 24 31 34 18 5 4 1 0 0 0 0
0 4 6 8 9 11 3 2 4 3 7 3 6 4 8 5 11 18 10 17 12 5 12 20 19 29 22 16 5 6 0 1 0 2 32 54 57 19 0 0 0 0 0
2 5 9 11 3 8 3 3 2 4 5 6 5 13 4 7 6 6 15 23 9 6 14 17 36 19 6 5 0 3 4 0 9 1 8 59 73 16 2 0 0 0 0
8 9 6 2 4 5 7 3 2 2 3 4 16 15 5 6 3 12 22 12 9 9 7 7 6 15 9 2 10 10 3 8 18 7 26 55 36 0 0 1 0 0 0
2 12 5 0 4 4 2 2 3 2 5 8 8 11 8 7 10 7 12 16 6 12 5 3 3 2 4 12 11 7 19 39 23 23 32 10 9 0 0 0 0 0 0
4 2 1 4 2 0 3 3 2 2 2 3 9 10 11 4 2 0 12 15 11 8 8 0 0 4 14 11 19 29 41 23 33 24 29 5 0 0 0 0 0 6 3
7 0 3 1 2 3 2 2 3 2 2 3 4 2 8 6 0 0 0 3 6 8 10 15 19 12 10 12 16 18 28 37 25 23 23 0 0 0 2 10 2 2 0
1 3 4 2 3 2 2 2 2 2 2 3 3 7 7 6 3 2 4 8 8 5 5 1 2 7 3 3 2 10 28 28 20 15 19 1 1 7 4 4 2 0 0
5 2 2 3 2 2 2 2 2 6 8 7 8 10 5 8 8 9 13 16 17 9 5 3 4 0 4 6 7 3 9 15 3 2 0 3 4 1 1 3 0 0 0
1 2 2 2 2 2 3 2 3 0 0 10 3 4 16 12 4 4 6 11 13 14 11 7 3 1 1 0 0 1 1 0 0 0 0 0 2 1 9 3 0 2 1
4 3 2 1 1 2 4 2 4 4 3 3 9 11 16 17 11 7 3 1 2 2 3 3 3 3 3 2 3 4 5 4 4 3 3 4 5 3 0 1 2 3 10
2 2 1 1 2 3 1 4 3 3 3 4 3 3 9 8 8 9 4 3 3 3 3 4 4 4 3 3 3 2 2 3 1 0 0 0 0 1 3 2 2 10 9
1 3 2 2 2 2 3 3 3 3 3 3 2 2 1 0 1 1 2 2 2 2 2 2 1 0 0 0 0 0 0 0 0 1 2 2 2 2 3 2 19 19 4
1 2 2 2 2 2 3 3 3 2 3 2 2 4 3 1 2 2 2 3 3 1 0 0 0 0 0 0 0 1 0 1 1 1 1 1 2 2 0 12 20 7 6
1 2 2 2 2 2 3 3 2 3 3 3 3 3 1 1 2 3 3 3 2 0 1 0 0 2 2 1 1 2 2 1 1 0 0 0 1 1 16 26 24 5 2
1 2 2 2 2 2 2 2 2 3 3 2 3 2 2 2 2 2 2 2 3 3 3 3 1 0 1 1 0 1 3 2 1 1 1 0 0 5 23 25 13 10 4
1 2 2 2 2 1 2 2 2 2 2 2 2 1 2 2 2 3 2 2 4 1 6 2 1 3 3 4 2 1 0 0 1 1 1 1 0 1 10 15 14 8 4
1 1 2 2 2 1 1 2 1 2 2 2 2 2 2 2 2 2 2 2 0 5 3 3 1 2 0 0 0 0 0 0 1 1 1 1 0 0 0 1 1 7 16
0 0 1 1 2 2 2 1 1 1 1 2 2 2 2 2 2 2 3 3 3 7 2 4 0 1 0 0 0 0 0 0 0 1 2 1 0 0 0 0 1 5 8
CIN
-0 -0 -0 -0 -0 -0 -0 -0 -0 -0 -0 -0 -0 -0 -0 -0 -0 -0 -0 -0 -0 -0 -0 -0 -0 -1 -1 -2 -1 -0 -3 -5 -0 -0 -0 -0 -0 -0 -0 -0 -0 -0 -0
-0 -0 -0 -0 -0 -0 -0 -0 -0 -0 -0 -1 -0 -0 -0 -0 -1 -2 -0 -0 -0 -0 -1 -0 -0 -3 -4 -0 -2 -4 -2 -3 -2 -0 -1 -0 -0 -0 -0 -0 -0 -0 -0
-0 -0 -0 -0 -0 -0 -0 -0 -1 -1 -2 -2 -2 -0 -5 -8 -0 -0 -0 -3 -0 -4 -0 -0 -0 -0 -1 -1 -0 -2 -1 -1 -4 -1 -0 -0 -0 -0 -0 -0 -0 -0 -0
-0 -0 -0 -0 -0 -1 -2 -1 -1 -1 -4 -3 -2 -3 -5 -0 -0 -0 -2 -10 -0 -1 -9 -0 -4 -1 -0 -2 -0 -3 -10 -4 -2 -3 -1 -0 -0 -0 -0 -0 -0 -0 -0
-0 -0 -0 -0 -0 -1 -0 -4 -0 -0 -0 -4 -2 -0 -1 -1 -0 -0 -0 -4 -24 -6 -2 -0 -0 -7 -2 -1 -1 -10 -8 -10 -15 -6 -7 -0 -0 -0 -0 -0 -0 -0 -0
-0 -0 -1 -0 -0 -1 -1 -0 -1 -0 -0 -0 -0 -0 -0 -0 -3 -2 -2 -5 -6 -9 -23 -50 -0 -1 -1 -9 -19 -37 -43 -38 -14 -11 -11 -1 -0 -0 -0 -0 -0 -0 -0
-0 -0 -2 -3 -1 -0 -1 -0 -0 -0 -0 -0 -0 -0 -0 -0 -4 -2 -1 -1 -1 -1 -21 -0 -0 -1 -3 -8 -36 -52 -74 -68 -58 -21 -2 -2 -1 -0 -0 -0 -0 -0 -0
-0 -1 -2 -0 -0 -0 -0 -1 -2 -0 -0 -0 -0 -0 -0 -0 -1 -2 -1 -1 -0 -7 -9 -2 -0 -10 -6 -16 -1 -1 -1 -43 -55 -31 -1 -4 -3 -25 -21 -0 -0 -0 -0
-0 -0 -0 -0 -0 -1 -0 -0 -1 -0 -0 -2 -0 -0 -0 -1 -1 -1 -1 -1 -1 -2 -2 -1 -4 -4 -8 -5 -3 -2 -0 -2 -0 -18 -16 -1 -3 -25 -0 -0 -0 -0 -0
-0 -0 -0 -0 -0 -0 -0 -0 -0 -0 -0 -0 -1 -0 -2 -1 -1 -1 -1 -0 -0 -2 -0 -0 -0 -4 -4 -3 -0 -1 -2 -0 -5 -6 -7 -2 -0 -24 -0 -0 -0 -0 -0
-0 -0 -0 -1 -0 -0 -0 -0 -0 -0 -1 -1 -0 -1 -2 -1 -3 -1 -1 -1 -1 -1 -1 -3 -1 -0 -1 -0 -1 -3 -2 -1 -2 -6 -15 -4 -1 -0 -0 -0 -0 -0 -0
-2 -0 -0 -1 -0 -0 -0 -1 -0 -0 -0 -0 -2 -1 -1 -2 -1 -2 -2 -2 -2 -1 -0 -2 -3 -2 -1 -0 -1 -1 -1 -1 -3 -3 -38 -11 -0 -4 -0 -0 -0 -0 -0
-0 -0 -0 -0 -0 -0 -0 -0 -0 -0 -0 -0 -0 -0 -0 -3 -10 -9 -2 -3 -2 -2 -1 -0 -0 -1 -2 -1 -1 -1 -50 -70 -67 -68 -59 -0 -0 -0 -0 -0 -0 -1 -1
-0 -0 -0 -0 -0 -0 -0 -0 -0 -0 -0 -0 -0 -0 -0 -0 -4 -0 -7 -6 -2 -2 -1 -2 -1 -2 -1 -12 -83 -75 -45 -41 -75 -73 -94 -0 -0 -0 -1 -1 -2 -0 -0
-0 -0 -0 -0 -0 -0 -0 -0 -0 -0 -0 -0 -0 -0 -0 -0 -0 -0 -0 -0 -0 -2 -13 -1 -0 -2 -2 -2 -0 -71 -37 -65 -109 -85 -0 -11 -1 -3 -0 -0 -0 -0 -0
-0 -0 -0 -0 -0 -0 -0 -0 -0 -0 -0 -0 -0 -0 -0 -0 -0 -0 -0 -0 -0 -0 -0 -0 -0 -0 -0 -0 -0 -0 -0 -1 -2 -0 -0 -2 -1 -0 -0 -0 -2 -0 -0
-0 -0 -0 -0 -0 -0 -0 -0 -0 -0 -0 -0 -1 -0 -0 -0 -0 -0 -0 -0 -0 -0 -0 -0 -0 -0 -0 -0 -0 -0 -0 -0 -0 -0 -0 -0 -0 -0 -0 -15 -0 -0 -0
-0 -0 -0 -0 -0 -0 -0 -0 -0 -0 -0 -0 -0 -0 -0 -0 -0 -0 -0 -0 -0 -0 -0 -0 -0 -0 -0 -0 -0 -0 -0 -0 -0 -0 -0 -1 -5 -4 -0 -0 -0 -0 -0
-0 -0 -0 -0 -0 -0 -0 -0 -0 -0 -0 -0 -0 -0 -0 -0 -0 -0 -0 -0 -0 -0 -0 -0 -0 -0 -0 -0 -0 -0 -0 -0 -1 -0 -0 -0 -0 -0 -0 -0 -1 -0 -4
-0 -0 -0 -0 -0 -0 -0 -0 -0 -0 -0 -0 -0 -0 -0 -0 -0 -0 -0 -0 -0 -0 -0 -0 -0 -0 -0 -0 -0 -0 -0 -0 -0 -0 -0 -0 -0 -0 -0 -0 -0 -1 -12
-0 -0 -0 -0 -0 -0 -0 -0 -0 -0 -0 -0 -0 -0 -0 -0 -0 -0 -0 -0 -0 -0 -0 -0 -0 -0 -0 -0 -0 -0 -0 -0 -0 -0 -0 -0 -0 -0 -0 -1 -4 -8 -8
-0 -0 -0 -0 -0 -0 -0 -0 -0 -0 -0 -0 -0 -0 -0 -0 -0 -0 -0 -0 -0 -0 -0 -0 -0 -0 -0 -0 -0 -0 -0 -0 -0 -0 -0 -0 -0 -0 -3 -2 -0 -16 -20
-0 -0 -0 -0 -0 -0 -0 -0 -0 -0 -0 -0 -0 -0 -0 -0 -0 -0 -0 -0 -0 -0 -0 -0 -1 -0 -2 -0 -0 -0 -0 -0 -0 -0 -0 -0 -0 -0 -2 -1 -2 -1 -20
-0 -0 -0 -0 -0 -0 -0 -0 -0 -0 -0 -0 -0 -0 -0 -0 -0 -0 -0 -0 -0 -0 -0 -0 -0 -1 -2 -0 -0 -0 -0 -0 -0 -0 -0 -0 -0 -25 -4 -1 -2 -6 -13
-0 -0 -0 -0 -0 -0 -0 -0 -0 -0 -0 -0 -0 -0 -0 -0 -0 -0 -0 -0 -0 -0 -0 -0 -0 -1 -0 -0 -0 -0 -0 -0 -0 -0 -0 -0 -0 -0 -4 -19 -14 -5 -0
-1 -0 -0 -0 -0 -0 -0 -0 -0 -0 -0 -0 -0 -0 -0 -0 -0 -0 -0 -0 -0 -0 -4 -1 -0 -1 -0 -0 -0 -1 -0 -0 -0 -0 -0 -0 -0 -0 -0 -0 -8 -10 -1
Wind_Speed
43 43 44 44 44 43 43 43 44 44 43 41 41 41 40 37 37 39 36 34 34 34 34 35 35 34 34 36 37 38 38 39 48 44 41 42 34 32 32 29 29 25 25
43 44 45 44 43 43 43 43 43 44 42 42 42 42 40 38 37 36 35 34 34 34 33 35 34 33 35 35 37 40 39 37 40 45 44 42 43 39 32 30 30 29 26
44 44 43 43 44 44 44 44 45 44 44 44 44 43 41 39 39 37 36 35 33 35 34 34 33 32 35 34 36 37 38 39 36 40 42 39 40 40 38 34 32 33 28
44 43 44 45 45 46 48 48 47 44 45 44 43 42 40 39 39 38 35 37 36 33 32 31 33 36 36 35 37 39 37 39 37 38 39 40 39 42 41 40 37 35 32
44 45 46 46 47 47 48 46 43 46 45 44 44 41 40 39 37 34 34 33 34 35 34 32 31 37 38 34 35 37 37 39 37 37 39 40 42 39 44 40 39 36 35
46 46 47 47 46 47 46 46 48 47 46 42 41 38 38 36 35 36 35 31 35 31 36 43 37 31 35 38 41 41 41 40 38 36 37 42 42 40 39 39 41 39 40
45 48 48 46 47 47 49 46 47 45 43 37 36 34 35 32 34 32 29 28 30 32 42 50 38 32 34 33 35 38 40 42 45 41 38 40 41 39 38 38 39 40 40
48 48 47 45 47 47 46 45 43 40 36 32 29 26 30 31 29 28 27 31 38 46 48 44 34 35 38 32 33 37 37 36 39 44 45 39 38 39 39 38 39 37 38
46 46 45 45 45 45 44 42 39 36 33 31 27 29 26 27 25 25 33 39 42 44 41 43 41 37 40 37 37 39 39 40 41 44 43 44 42 38 37 36 38 38 40
45 47 44 41 41 36 36 34 33 30 25 22 15 13 16 18 22 31 40 33 39 39 36 30 47 42 40 39 39 39 40 39 38 40 42 39 41 38 39 38 37 40 39
44 43 42 37 29 27 26 23 19 17 14 11 10 9 10 12 12 17 17 22 35 35 34 35 39 38 40 43 42 39 39 35 35 37 38 33 34 34 35 37 39 39 38
46 42 36 30 28 27 22 20 15 13 11 10 9 10 8 11 14 20 29 33 36 36 38 37 37 38 39 38 37 40 40 39 36 34 32 32 31 30 31 35 39 39 36
42 37 30 25 22 20 18 18 15 12 10 9 10 11 11 11 13 18 23 27 32 37 39 40 41 42 40 40 42 41 39 34 31 32 29 30 31 32 32 37 36 36 32
36 25 25 20 25 20 16 15 13 11 9 8 7 9 9 9 11 14 19 24 28 30 32 36 39 41 42 42 40 40 39 37 33 32 34 32 31 31 35 35 34 33 33
22 20 20 23 21 19 15 14 12 9 8 8 7 8 9 12 16 20 23 24 27 29 30 32 35 39 41 42 41 40 39 36 39 33 32 32 36 36 35 34 31 28 31
22 30 27 24 19 16 13 13 9 6 6 6 6 6 7 12 20 25 29 31 30 30 29 29 29 32 40 43 43 41 39 38 26 28 35 36 37 34 32 30 26 29 31
26 33 28 23 17 15 11 9 6 8 9 37 14 8 10 13 26 26 6 23 28 31 30 26 22 20 23 25 26 33 27 26 25 31 33 34 35 36 34 28 29 30 28
27 30 29 25 11 10 9 6 5 9 7 7 24 19 9 24 11 15 15 12 27 24 23 21 18 19 19 20 20 21 24 25 28 29 31 30 29 30 31 33 28 24 19
26 25 27 17 10 11 8 7 4 3 6 5 10 10 6 11 15 14 16 22 23 21 20 18 18 17 17 17 19 18 18 19 22 25 27 30 31 31 27 24 16 11 5
23 24 24 12 10 13 10 4 2 4 4 6 10 12 8 6 9 7 9 12 12 10 11 11 10 9 11 13 14 16 18 20 23 26 28 28 28 24 22 17 5 5 3
22 19 18 8 10 7 6 3 2 6 9 9 5 9 10 10 9 5 6 8 7 5 3 4 5 6 6 8 9 10 14 16 17 19 22 26 28 24 27 9 8 5 5
21 15 13 9 9 7 4 1 8 4 12 12 8 7 11 7 6 8 10 8 6 4 3 3 2 3 5 8 9 7 10 14 16 18 20 30 34 37 29 24 21 30 32
18 16 12 9 8 5 1 5 6 14 17 18 20 17 13 8 6 5 4 4 4 4 4 2 2 0 3 8 11 12 7 7 11 14 18 26 34 31 30 32 31 31 34
16 15 10 8 7 8 10 8 11 13 13 14 12 8 5 4 5 4 3 4 3 6 10 9 8 6 5 8 9 4 2 6 9 12 18 25 29 28 27 28 28 29 33
12 12 11 10 12 12 12 10 7 5 8 8 10 8 6 5 2 4 7 7 8 9 6 4 3 3 3 4 3 3 2 2 3 10 15 19 22 24 24 25 26 29 31
15 13 11 9 11 12 13 8 3 3 2 1 3 5 4 2 6 9 8 6 9 6 5 5 4 4 3 5 3 3 4 6 4 6 12 17 20 22 24 24 29 33 32
Wind_Direction
329 328 327 326 325 323 321 319 318 316 314 310 308 305 302 299 299 297 290 287 287 287 284 280 278 278 277 275 273 270 265 264 262 262 261 261 265 259 262 260 261 263 262
329 328 327 327 326 325 323 321 320 317 315 312 309 306 303 300 299 296 290 286 286 286 283 279 277 278 276 273 270 269 267 263 262 261 261 261 258 265 258 257 259 262 262
329 328 328 327 326 324 323 321 320 318 316 313 309 305 303 300 298 294 290 287 285 285 283 280 279 276 272 270 268 267 266 265 263 263 262 262 261 259 256 257 256 260 262
330 329 328 327 326 325 324 322 320 318 315 311 308 305 302 299 296 292 288 286 286 283 280 281 277 273 268 268 267 265 267 265 263 261 262 262 261 257 255 253 255 257 258
330 329 328 328 327 325 324 322 319 318 315 312 307 305 302 298 295 290 287 282 282 280 283 278 273 269 267 268 267 266 265 264 263 261 260 262 259 258 252 252 253 253 256
331 330 330 328 327 325 324 323 320 318 316 312 310 305 305 299 295 289 285 282 282 278 275 270 270 268 266 267 266 265 264 263 265 261 260 260 259 258 254 250 250 251 252
332 332 330 329 327 327 326 324 323 321 320 313 310 306 306 301 296 290 282 281 278 278 262 238 256 271 265 266 266 264 263 260 258 261 261 259 259 258 255 249 249 249 252
333 332 333 331 330 330 328 327 325 326 325 322 316 309 308 303 299 292 286 279 274 261 252 259 272 267 262 267 267 263 263 263 259 254 254 259 259 259 255 251 248 251 252
334 335 334 334 334 333 332 330 330 329 328 326 320 318 313 310 304 296 282 269 264 255 262 257 260 263 256 262 263 260 262 260 260 254 254 253 255 257 256 253 248 245 247
337 337 337 337 337 336 335 334 334 334 330 327 313 299 253 244 235 235 246 276 264 262 264 267 243 254 255 257 258 261 261 264 263 259 258 259 253 255 253 250 247 243 245
339 338 339 339 334 331 332 329 320 320 315 303 281 267 252 237 227 218 210 218 266 265 265 262 252 253 251 249 252 259 262 268 265 262 261 262 258 254 253 251 244 243 243
342 342 342 340 340 339 327 323 315 309 298 284 266 252 236 227 220 220 225 226 226 224 252 254 252 251 250 252 255 256 259 259 264 263 264 260 258 254 251 248 241 240 243
344 346 345 340 331 326 314 307 303 295 291 271 261 249 236 222 216 218 217 216 218 224 235 237 238 241 244 245 237 245 255 261 261 262 261 257 254 253 248 241 237 237 244
348 345 346 324 304 308 319 320 309 304 298 283 269 257 245 232 219 210 208 213 217 213 213 220 227 232 234 239 244 244 244 246 252 253 252 250 248 242 235 227 230 237 240
344 335 321 306 306 307 320 324 319 305 282 272 261 258 259 255 241 229 218 208 207 209 211 219 221 235 244 245 242 240 239 244 244 252 245 233 225 220 222 226 232 237 241
309 306 305 305 307 307 318 325 335 351 307 280 262 253 264 270 266 234 221 216 209 205 208 209 218 226 223 217 225 231 239 240 249 237 220 213 210 218 224 228 232 238 241
307 308 307 306 308 304 314 325 345 358 12 29 78 99 91 73 3 13 231 190 201 195 203 212 202 209 206 216 226 202 214 213 214 205 203 207 209 209 213 226 233 232 237
308 311 311 308 319 305 304 295 305 327 343 14 64 76 70 82 57 90 100 98 126 143 158 167 171 171 174 178 186 194 198 202 200 203 204 208 213 216 219 219 229 230 241
311 312 314 311 311 303 303 299 312 356 336 355 352 360 44 30 34 51 97 112 122 131 141 148 155 161 167 175 182 190 199 206 209 207 205 205 207 213 224 228 224 235 236
310 315 319 320 317 316 316 319 1 359 42 14 3 3 6 29 26 69 84 107 117 126 139 147 156 168 176 185 192 192 195 197 197 197 201 208 211 223 219 219 150 136 120
310 311 317 323 319 318 317 329 87 100 102 103 36 6 7 12 20 64 39 26 32 46 98 147 163 170 187 192 201 199 193 197 207 212 202 197 197 207 199 114 118 117 111
310 308 310 311 311 316 319 344 113 349 352 354 353 6 9 17 17 13 17 29 58 72 81 116 162 200 188 184 187 195 186 180 191 201 200 166 160 165 177 188 186 173 168
308 309 307 306 306 307 323 329 334 346 356 1 9 6 0 2 6 25 70 71 81 76 34 40 134 218 193 171 169 168 177 192 191 188 186 175 168 170 171 169 169 168 167
303 307 302 304 307 310 322 322 334 348 353 359 0 1 5 13 11 22 72 113 87 113 122 121 114 115 143 161 165 174 166 174 177 181 176 171 171 171 170 170 170 170 167
292 301 299 303 315 322 324 321 314 321 344 352 357 356 0 3 36 119 134 132 126 127 113 74 58 67 79 126 144 133 84 39 154 176 176 176 174 176 176 175 174 169 165
294 295 296 295 309 316 325 311 278 291 316 12 9 6 16 77 138 139 142 130 132 122 115 106 70 62 100 146 127 102 70 40 88 146 169 171 173 173 172 172 169 164 163